STARLINK-3771, 52293

Orbit data source: Space-Track

STARLINK-3771, 52293 is a payload satellite owned by SpaceX/Seattle (US) in LEO that was launched on Thu, 21 Apr 2022 UTC via an FALCON 9 launch vehicle from the Air Force Eastern Test Range (AFETR). Payload-class satellites include a variety of spacecraft equipped with specific instruments for various scientific and technological missions. These include communications satellites like Starlink; space stations such as the ISS; scientific satellites like the Hubble; Earth observation satellites from companies like Planet Labs, Umbra, and HawkEye 360; GPS; miniature CubeSats for education and research; and military/defense satellites.

Loading next visibility...
Identifier
52293, 2022-041AJ
Orbit
LEO
Country
Flag of USUS
Related business
Manufacturer
SpaceX/Seattle
Mission
Operational Commercial Communications
Bus & Motor
STARLINK, Unknown motor
Mass
297 kg wet, ~275 kg dry
Launch date (UTC)
2022-04-21 (4 years ago)
Launch vehicle
FALCON 9
Launch site
Air Force Eastern Test Range (AFETR)
Object type
Payload
Rocket body
Debris
Shape & HBR
Box + 1 Pan, 10.1 m
Radar Cross Section
11.087 m², Large (>1 m²)

Expand to show TLE details & history
Last TLE update: 11 hours ago

TLE from 11 hours ago
0 STARLINK-3771
1 52293U 22041AJ  26236.87444176 -.00000121  00000-0  75499-5 0  9994
2 52293  53.1605  55.8580 0001252  99.0376 261.0769 15.34384312240009
Epoch: 2026-08-24T20:59Z
TLE epoch observation values (Epoch: 2026-08-24T20:59:11.768Z)
Latitude
0.00005°
Longitude
127.90913°
Altitude
463.784 km
Speed
7.636 km/s
True Right ascension
03h 43m 25s
True Declination
0° 00' 00"
Sunlit
Object was in daylight at epoch
Visualization orbit readout
Latitude
Unknown
Longitude
Unknown
Altitude
Unknown
Speed
Unknown
Apparent Right ascension
Unknown
Apparent Declination
Unknown
Sunlit
N/A
Visualization observer readout
Local Sidereal Time
23:01:31
Azimuth
Unknown
Elevation
Unknown
Doppler factor
Unknown
Orbital elements
Apogee altitude
463.863 km
Perigee altitude
462.15 km
Semi-major axis
6,841.144 km
Eccentricity
0.00013
Inclination
53.1605°
RAAN
55.858°
Arg. of periapsis
99.0376°
True anomaly
261.06273°
Mean anomaly
261.0769°
Eccentric anomaly
261.06981°
Mean motion
3.83575 °/min
Orbital period
93.85 mins
BSTAR
0.0000075499
Loading maneuver chart data...
Computing Atmospheric mass density...

Documentation

Showing up to 5 results
|